SHANNON (48938 NORAD) Tracking and Keplerian Element Data

This shows tracking and keplerian element data for the satellite.

Feedback or suggestion? Click here.




ElementValue
Catalog48938
NameSHANNON
Epoch Orbit1396
Epoch Day269.09585975
Epoch Year2021
RAAN36.7616
Inclination97.5233
Eccentricity0.0015615
Argument of Perigee299.8259
Mean Anonmoly60.142
Mean Motion15.14068769
Decay Rate8.88E-06
L11 48938U 21059BM 21269.09585975 .00000888 00000-0 52354-4 0 9994
L22 48938 97.5233 36.7616 0015615 299.8259 60.1420 15.14068769 13963

Live tracking and technical data element details for SHANNON (NORAD 48938). SHANNON can be tracked NOW for your location showing map with azimuth and elevation plus other details from your city location.

Track the satellite on the map from your city or location and see movement details for azimuth, elevation, latitude, longitude, range, height, and movement on the map or in text.







IsCatalogInMostPopularTable: catalog: 48938, numindb: 14
Update: records affected: 1



GetName: 48938 SHANNON

Hit Count: updated at: Sun, 26 Sep 2021 15:46:45 GMT